Regional Weather Roundup
Issued by NWS Burlington, VT

Home | Current Version | Previous Version | Text Only | Print | Product List | Glossary On
Versions: 1 2 3 4 5 6 7 8 9 10 11 12 13 14 15 16 17 18 19 20 21 22 23 24 25 26 27 28 29 30 31 32 33 34 35 36 37 38 39 40 41 42 43 44 45 46 47 48 49 50
000
ASUS41 KBTV 210930
RWRBTV
VERMONT REGIONAL WEATHER ROUNDUP
NATIONAL WEATHER SERVICE BURLINGTON VT
400 AM EST SAT JAN 21 2017

NOTE: "FAIR" INDICATES FEW OR NO CLOUDS BELOW 12,000 FEET WITH NO
SIGNIFICANT WEATHER AND/OR OBSTRUCTIONS TO VISIBILITY.

* THESE REPORTS ARE NOT UNDER NWS QUALITY CONTROL AND/OR DO NOT
  REPORT WEATHER SUCH AS PRECIPITATION AND FOG.

VTZ001>019-211000-
_____VERMONT_____


CITY           SKY/WX    TMP DP  RH WIND       PRES   REMARKS
BURLINGTON     CLOUDY    38  34  85 S8        29.82F
MONTPELIER     CLOUDY    32  30  92 CALM      29.83F
MORRISVILLE    CLOUDY    31  28  89 CALM      29.84S
ST. JOHNSBURY*   N/A     33  30  88 MISG      29.82F
LYNDONVILLE*   CLOUDY    31  30  95 CALM      29.83S FOG
MIDDLEBURY*    CLOUDY    37  28  70 S5        29.83F
RUTLAND*       CLOUDY    34  32  92 E3        29.83F
SPRINGFIELD    CLOUDY    32  30  92 CALM      29.85F
HIGHGATE*      CLOUDY    36  33  87 S7        29.82S WCI  31
NEWPORT*       CLOUDY    32  30  92 S5        29.81F WCI  27
BENNINGTON     CLOUDY    37  32  82 CALM      29.84F
SUTTON*          N/A     28 N/A N/A MISG        N/A
ISLAND POND*     N/A     28 N/A N/A NE1         N/A
GALLUP MILLS*    N/A     28 N/A N/A MISG        N/A
UNION VILLAGE*   N/A     32 N/A N/A MISG        N/A
MT. MANSFIELD*   N/A     28 N/A N/A W29         N/A  WCI  13

_____LAKE CHAMPLAIN_____


CITY           SKY/WX    TMP DP  RH WIND       PRES   REMARKS
BURTON ISLAND*   N/A     36  34  93 SW8         N/A  WCI  29
COLCHESTER RF*   N/A     37  36  93 SW16        N/A  WCI  28
DIAMOND ISL*     N/A     37  36  93 S8          N/A  WCI  31

$$

NYZ007-026>031-035-052-083-087-211000-
_____NORTHERN NEW YORK_____


CITY           SKY/WX    TMP DP  RH WIND       PRES   REMARKS
PLATTSBURGH    CLOUDY    33  31  92 CALM      29.82F
SARANAC LAKE   CLOUDY    33  32  96 CALM      29.75F FOG
MASSENA        CLOUDY    33  33 100 CALM      29.80F FOG
OGDENSBURG*    CLOUDY    36  34  93 CALM      29.78F FOG
POTSDAM*       CLOUDY    39  39 100 CALM      29.78F FOG
STARK FALLS*     N/A     34 N/A N/A SE6         N/A  WCI  29
WATERTOWN      CLOUDY    44  44 100 SW12      29.78F FOG
FT DRUM        CLOUDY    37  36  93 SE8       29.76F WCI  31
ALBANY         CLOUDY    39  35  86 S7        29.86F
GLENS FALLS    FOG       35  32  88 CALM      29.84F VSB 1/2

$$
NHZ002-005-011-211000-
_____NEW HAMPSHIRE_____


CITY           SKY/WX    TMP DP  RH WIND       PRES   REMARKS
LEBANON        CLOUDY    36  32  85 S6        29.83F WCI  31
KEENE          CLOUDY    33  31  92 CALM      29.86F
MT WASHINGTON  MOCLDY    34   0  23 W31         N/A  WCI  20
PLYMOUTH       CLOUDY    32  31  95 CALM      29.84F
WHITEFIELD     CLOUDY    29  25  85 CALM      29.82F

$$

_____REGIONAL QUEBEC LOCATIONS_____


CITY           SKY/WX    TMP DP  RH WIND       PRES   REMARKS
MONTREAL       CLOUDY    34  30  86 N6        29.81S WCI  29
QUEBEC CITY    FRZ DRZL  30  28  93 SW2       29.81F FOG
SHERBROOKE     CLOUDY    30  28  93 NE3       29.80S

_____REGIONAL ONTARIO LOCATIONS_____


CITY           SKY/WX    TMP DP  RH WIND       PRES   REMARKS
OTTAWA         CLOUDY    32  30  93 NE5       29.78F FOG     WCI  27

______KEY______
VSB  - VISIBILITY IN MILES
WCI  - WIND CHILL INDEX
HX   - HEAT INDEX
$$
NNNN




USA.gov is the U.S. government's official web portal to all federal, state and local government web resources and services.